User: anonymous   Login
Location: Unspecified
(0.0000°N, 0.0000°E)
Time: 09:17:55
(UTC+00:00)
Language:

UNIFORM 1 - Orbit

View from above orbital plane
View from above orbital plane
View from above satellite
View from above satellite

Ground track
Ground track

The orbit data is extracted from the following two-line orbital elements,

1 39767U 14029B   18018.70401768  .00000124  00000-0  21526-4 0  9996
2 39767  97.8640 116.2908 0005068 330.8424  29.2516 14.83525983197918
Epoch (UTC): 18 January 2018 16:53:47
Eccentricity: 0.0005068
inclination: 97.8640°
perigee height: 614 km
apogee height: 622 km
right ascension of ascending node: 116.2908°
argument of perigee: 330.8424°
revolutions per day: 14.83525983
mean anomaly at epoch: 29.2516°
orbit number at epoch: 19791

The dashed part of the orbit path shows where the satellite is in the earth's shadow,  

DLR